Location: Gradaro
(45.0833°N, 10.8833°E)
Time: 10:30:24
(UTC+00:00)

FENGYUN 1C DEB - Pass Details

Date: 29 June 2021
Orbit: 803 x 830 km, 98.8° (Epoch: 28 July)

Event Time Altitude Azimuth Distance (km) Brightness Sun altitude
Exits shadow 21:30:45 29° 165° (SSE) 1,449 ? -17.3°
Maximum altitude 21:33:34 90° 247° (WSW) 820 ? -17.5°
Drops below altitude 10° 21:38:57 10° 346° (NNW) 2,422 ? -18.0°
Sets 21:41:18 0° 346° (NNW) 3,363 ? -18.1°
